Regional Weather Roundup
Issued by NWS

Home | Current Version | Previous Version | Text Only | Print | Product List | Glossary Off
Versions: 1 2 3 4 5 6 7 8 9 10 11 12 13 14 15 16 17 18 19 20 21 22 23 24 25 26 27 28 29 30 31 32 33 34 35 36 37 38 39 40 41 42 43 44 45 46 47 48 49 50

000
ASUS45 KSLC 041510
RWRUT

UTAH REGIONAL WEATHER ROUNDUP
NATIONAL WEATHER SERVICE SALT LAKE CITY UT
800 AM MST WED MAR 04 2015

UTZ001>011-023>025-041600-

NORTHERN UTAH

CITY           SKY/WX    TMP DP  RH WIND       PRES   REMARKS
BRIGHAM CITY   SUNNY     23  16  77 CALM      30.14R
DUGWAY         SUNNY     23  19  84 CALM      30.17
HILL AFB       SUNNY     25  19  80 CALM      30.12R
LOGAN          SUNNY     22  15  75 CALM      30.13R
OGDEN          SUNNY     23  19  85 S3        30.13R
PROVO AIRPORT  MOSUNNY   25  21  86 SE5       30.14R WCI  19
SALT LAKE CITY MOSUNNY   28  22  78 SE7       30.14R WCI  21
VERNAL         PTSUNNY   18  10  71 W3        30.07R
WENDOVER       PTCLDY    27  10  50 SW6       30.16R WCI  20
HEBER CITY     SUNNY      9   5  85 CALM      30.10R
WEST JORDAN    SUNNY     19  14  79 CALM      30.14R

$$

UTZ012>022-026-027-041600-

SOUTHERN/CENTRAL UTAH

CITY           SKY/WX    TMP DP  RH WIND       PRES   REMARKS
BLANDING       SUNNY     20  14  77 NW7       30.06R WCI  11
BRYCE CANYON   MOSUNNY   -3  -7  82 W14       30.02R WCI -22
CEDAR CITY     MOSUNNY   11   9  92 CALM      30.09R
DELTA          SUNNY     21  19  93 CALM      30.14R
HANKSVILLE     SUNNY     28  23  80 SE5       30.11R WCI  23
MILFORD        SUNNY     16  12  84 CALM      30.13R
MOAB/CYNLANDS  SUNNY     29  20  69 W3        30.05R
PRICE          SUNNY     25  12  58 NW13      30.03R WCI  14
ST GEORGE      SUNNY     36  23  60 CALM      30.13R
KANAB          SUNNY     28  14  54 N6        30.11R WCI  22

$$

REGIONAL REPORTS     COLORADO/ARIZONA

CITY           SKY/WX    TMP DP  RH WIND       PRES   REMARKS
CRAIG, CO      CLOUDY     6   3  87 CALM      30.05R
GRAND JUNCTION SUNNY     26  20  77 W3        30.05R
RIFLE          MOSUNNY   23   9  55 SW5       30.05R WCI  17
MONTROSE       CLOUDY    26  18  71 N3        30.03R
CORTEZ         CLOUDY    27  16  63 CALM      29.98R
PAGE, AZ       SUNNY     34  17  50 CALM      30.05R
GRAND CANYON   SUNNY     16  16 100 CALM      30.00R
KINGMAN        SUNNY     34  28  79 E9        30.05R WCI  27
FLAGSTAFF      MOSUNNY   13  12  96 CALM      29.97

$$

REGIONAL REPORTS    NEVADA/IDAHO/WYOMING

CITY           SKY/WX    TMP DP  RH WIND       PRES   REMARKS
LAS VEGAS, NV  CLEAR     45  15  30 N15       30.08R
ELY            PTCLDY     4   0  83 S12       30.13R WCI -12
ELKO           CLEAR     15  11  83 CALM      30.16R
POCATELLO, ID  CLEAR     13  10  88 CALM      30.18R
BURLEY         CLEAR     21  13  71 S6        30.17R WCI  13
EVANSTON, WY   MOSUNNY   12   9  87 W6        30.01R WCI   3
ROCK SPRINGS   LGT SNOW   2  -2  83 CALM      30.03R FOG

$$



USA.gov is the U.S. government's official web portal to all federal, state and local government web resources and services.